FALCON 9 DEB (56366 NORAD) Tracking and Keplerian Element Data

This shows tracking and keplerian element data for the satellite.

Feedback or suggestion? Click here.




ElementValue
Catalog56366
NameFALCON 9 DEB
Epoch Orbit196
Epoch Day126.95256365
Epoch Year2023
RAAN126.5636
Inclination97.6651
Eccentricity0.003936
Argument of Perigee203.1814
Mean Anonmoly156.7683
Mean Motion15.87354018
Decay Rate0.00260337
L11 56366U 23058BB 23126.95256365 .00260337 26187-4 93776-3 0 9993
L22 56366 97.6651 126.5636 0039360 203.1814 156.7683 15.87354018 1965



Live tracking and technical data element details for FALCON 9 DEB (NORAD 56366). FALCON 9 DEB can be tracked NOW for your location showing map with azimuth and elevation plus other details from your city location.







IsCatalogInMostPopularTable: catalog: 56366, numindb: 7
Update: records affected: 1



GetName: 56366 FALCON 9 DEB

Hit Count: updated at: Wed, 07 Jun 2023 08:01:37 GMT